Tanner, AL

9:04 PM CST on February 20, 2017 (GMT -0600)
Pryor Regional

Weather History for KDCU - November, 2012

Change the Weather History Date:

Saturday, November 3, 2012

  Actual Average Record
Temperature  
Mean Temperature 62 °F -  
Max Temperature 82 °F 68 °F 84 °F (2003)
Min Temperature 42 °F 43 °F 17 °F (1954)
Degree Days  
Heating Degree Days 3    
Growing Degree Days 12 (Base 50)    
Moisture  
Dew Point 50 °F    
Average Humidity 70    
Maximum Humidity 94    
Minimum Humidity 33    
Precipitation  
Precipitation 0.34 in - - ()
Sea Level Pressure  
Sea Level Pressure 30.03 in    
Wind  
Wind Speed 4 mph (WSW)    
Max Wind Speed 17 mph    
Max Gust Speed 31 mph    
Visibility 9 miles    
Events Thunderstorm    
Averages and records for this station are not official NWS values.
T = Trace of Precipitation, MM = Missing Value Source: NWS Daily Summary

Daily Weather History Graph

Daily Weather History Graph

Search for Another Location

Airport or City:

Trip Planner

Search our weather history database for the weather conditions in past years. The results will help you decide how hot, cold, wet, or windy it might be!

Date:

Astronomy

Nov. 03, 2012 Rise Set
Actual Time 7:10 AM CDT 5:51 PM CDT
Civil Twilight 6:44 AM CDT 6:17 PM CDT
Nautical Twilight 6:14 AM CDT 6:47 PM CDT
Astronomical Twilight 5:44 AM CDT 7:17 PM CDT
Moon 9:36 PM CDT (11/3) 11:10 AM CDT (11/3)
Length of Visible Light 11h 33m
Length of Day
10h 41m
Waning Gibbous, 80% of the Moon is Illuminated
Nov 3
Waning Gibbous
Nov 6
Last Quarter
Nov 13
New
Nov 20
First Quarter
Nov 28
Full

Hourly Weather History & Observations

Time (CDT) Temp. Heat Index Dew Point Humidity Pressure Visibility Wind Dir Wind Speed Gust Speed Precip Events Conditions
12:53 AM 44.1 °F - 41.0 °F 89% 30.04 in 10.0 mi Calm Calm - N/A   Clear
1:53 AM 44.1 °F - 41.0 °F 89% 30.04 in 10.0 mi Calm Calm - N/A   Clear
2:53 AM 44.1 °F - 41.0 °F 89% 30.04 in 10.0 mi Calm Calm - N/A   Clear
3:53 AM 44.1 °F - 41.0 °F 89% 30.04 in 10.0 mi Calm Calm - N/A   Clear
4:53 AM 43.0 °F - 41.0 °F 93% 30.05 in 10.0 mi Calm Calm - N/A   Clear
5:53 AM 42.1 °F - 39.9 °F 92% 30.06 in 9.0 mi Calm Calm - N/A   Clear
6:54 AM 42.1 °F - 39.9 °F 92% 30.08 in - Calm Calm - N/A   Unknown
7:53 AM 45.0 °F - 43.0 °F 93% 30.09 in 8.0 mi Calm Calm - N/A   Clear
8:53 AM 53.1 °F - 45.0 °F 74% 30.09 in 8.0 mi East 4.6 mph - N/A   Clear
9:53 AM 61.0 °F - 46.9 °F 60% 30.09 in 10.0 mi South 3.5 mph - N/A   Clear
10:53 AM 70.0 °F - 50.0 °F 49% 30.09 in 10.0 mi South 4.6 mph - N/A   Clear
11:53 AM 75.0 °F - 55.9 °F 51% 30.06 in 10.0 mi WSW 8.1 mph - N/A   Clear
12:53 PM 78.1 °F - 57.0 °F 48% 30.03 in 10.0 mi West 6.9 mph - N/A   Clear
1:53 PM 81.0 °F 81.0 °F 57.0 °F 44% 30.00 in 10.0 mi WSW 6.9 mph - N/A   Clear
2:53 PM 82.9 °F - 51.1 °F 33% 29.98 in 10.0 mi West 10.4 mph - N/A   Clear
3:53 PM 82.0 °F - 50.0 °F 33% 29.96 in 10.0 mi WSW 13.8 mph - N/A   Clear
4:53 PM 80.1 °F - 48.9 °F 34% 29.95 in 10.0 mi WSW 8.1 mph 19.6 mph N/A   Clear
5:53 PM 75.9 °F - 46.9 °F 36% 29.94 in 10.0 mi WSW 9.2 mph - N/A   Clear
6:53 PM 73.0 °F - 48.9 °F 42% 29.96 in 10.0 mi SW 8.1 mph - N/A   Clear
7:53 PM 73.0 °F - 48.9 °F 42% 29.98 in 10.0 mi SW 8.1 mph - N/A   Clear
8:53 PM 70.0 °F - 48.9 °F 47% 29.98 in 10.0 mi SW 5.8 mph - N/A   Scattered Clouds
9:39 PM 62.6 °F - 57.2 °F 82% 30.03 in 5.0 mi NW 13.8 mph 31.1 mph 0.02 in   Haze
9:53 PM 61.0 °F - 57.9 °F 90% 30.03 in 2.0 mi WNW 15.0 mph 20.7 mph 0.13 in   Overcast
10:09 PM 62.6 °F - 57.2 °F 82% 30.05 in 4.0 mi West 17.3 mph 21.9 mph 0.07 in   Overcast
10:24 PM 62.6 °F - 60.8 °F 94% 30.04 in 2.5 mi SW 9.2 mph - 0.16 in Thunderstorm Overcast
10:32 PM 62.6 °F - 59.0 °F 88% 30.06 in 6.0 mi West 10.4 mph - 0.17 in Thunderstorm Overcast
10:45 PM 62.6 °F - 59.0 °F 88% 30.07 in 10.0 mi WSW 8.1 mph - 0.17 in   Overcast
10:53 PM 62.1 °F - 59.0 °F 90% 30.06 in 10.0 mi WSW 8.1 mph - 0.17 in   Overcast
11:53 PM 60.1 °F - 57.9 °F 93% 30.02 in 10.0 mi SSW 4.6 mph - 0.04 in   Mostly Cloudy